Retour au catalogue

ARIANE 5 R/B

ActifHEO
NORAD 40334·ROCKET BODY·🇫🇷 France

Lancé Dec 6, 2014 depuis Guiana Space Centre

Loading…

Prochains Passages (prochaines 24 heures)

TLE

FraisSource: Space-Track

Époque: Sep 14, 2026, 09:15 UTC

1 40334U 14078C   26257.38608976  .00004830  00000-0  73951-3 0  9996
2 40334   6.5111 304.5872 6776695 295.8053  10.8343  2.95155847109877

Suivez ARIANE 5 R/B en temps réel avec AllMySat

Download on the App Store